User: anonymous   Login
Location: Unspecified
(0.0000°N, 0.0000°E)
Time: 09:31:51
(UTC+00:00)
Language:

IRS-1A - Orbit

View from above orbital plane
View from above orbital plane
View from above satellite
View from above satellite

Ground track
Ground track

The orbit data is extracted from the following two-line orbital elements,

1 18960U 88021A   18018.20209751 -.00000186 +00000-0 -10110-3 0  9990
2 18960 099.2379 080.7532 0014258 003.2255 028.8611 13.96755775424288
Epoch (UTC): 18 January 2018 04:51:01
Eccentricity: 0.0014258
inclination: 99.2379°
perigee height: 894 km
apogee height: 915 km
right ascension of ascending node: 80.7532°
argument of perigee: 3.2255°
revolutions per day: 13.96755775
mean anomaly at epoch: 28.8611°
orbit number at epoch: 42428

The dashed part of the orbit path shows where the satellite is in the earth's shadow,  

DLR